GFSCGP_925_thetae_096.txt.gz
Theta_e
312 315 316 315 315 313 313 315 314 314 313 314 316 316 316 316 316 315 316 317 317 316 315 312 310 310 314 316 316 316 316 315 315 319 320 320 322 323 324 323 323 322 324 321
313 315 315 313 313 313 313 314 315 315 313 313 316 316 316 316 316 316 317 318 318 318 314 309 309 309 310 313 314 314 314 313 312 313 317 318 319 319 320 321 320 321 319 316
313 313 312 313 312 313 314 315 315 314 314 313 314 316 317 316 315 316 316 316 316 316 314 311 308 308 309 311 311 312 312 311 311 311 307 313 316 313 311 312 314 316 316 315
314 312 312 313 313 313 314 313 314 314 316 316 315 315 317 318 319 317 317 317 316 314 313 311 309 308 308 309 309 309 310 309 309 306 307 311 312 304 305 312 312 313 314 311
314 314 313 314 314 313 315 312 314 315 317 316 317 318 317 317 319 319 320 318 314 312 310 310 308 307 307 308 307 308 309 307 305 309 310 309 308 308 311 307 307 307 308 309
313 310 313 314 311 312 311 314 314 313 316 321 319 319 319 320 320 320 318 314 312 311 309 306 304 305 305 306 305 307 307 307 305 308 309 309 308 306 303 299 301 302 302 299
314 314 311 311 313 311 314 317 322 324 322 323 316 319 320 319 317 317 316 314 313 309 307 306 306 305 305 305 305 306 306 305 304 305 304 306 307 305 305 304 298 297 298 296
317 317 315 313 316 316 314 318 322 333 324 322 314 320 321 317 317 315 313 312 311 309 307 305 305 305 305 304 304 305 305 304 303 303 302 303 306 306 303 300 297 296 294 291
318 318 313 311 313 316 315 317 317 321 311 322 322 322 317 316 316 314 314 312 312 308 306 304 303 303 304 302 303 304 304 303 302 301 301 303 304 303 301 300 298 295 292 291
317 320 313 312 312 312 315 316 319 320 330 330 324 322 323 320 318 315 314 314 310 306 305 304 303 302 303 302 303 303 302 302 301 299 300 301 301 299 298 297 295 293 292 291
316 318 316 311 314 317 315 316 316 318 321 328 328 324 318 320 317 315 314 311 310 307 306 304 303 302 302 303 303 302 301 301 300 298 299 299 297 296 296 295 293 292 290 288
315 319 323 318 311 312 315 318 317 323 323 319 320 325 313 314 315 314 313 310 308 306 305 303 302 301 300 301 302 301 300 299 298 296 296 296 297 295 293 292 291 289 288 287
316 317 323 321 317 315 314 314 316 318 318 324 326 325 308 309 310 309 311 309 306 303 303 301 301 300 300 301 300 300 299 299 297 295 294 292 291 291 290 290 290 289 288 289
315 313 319 326 321 319 318 315 314 318 323 324 322 322 315 312 312 311 309 308 306 304 303 303 302 300 299 299 299 299 298 297 295 294 293 291 290 289 289 289 288 288 288 286
312 314 314 318 319 317 319 320 317 316 318 322 322 321 319 317 313 314 311 308 306 304 303 303 303 302 299 298 298 298 297 296 294 294 292 291 290 288 288 287 286 285 284 282
312 315 313 316 314 315 315 318 318 319 319 318 319 320 318 317 317 316 312 312 310 307 306 304 302 299 298 297 297 296 296 295 293 293 292 291 289 287 288 286 285 284 283 283
311 312 315 318 316 316 318 317 318 317 317 318 320 319 317 317 315 315 315 314 313 312 310 308 304 302 299 297 296 295 295 293 292 292 291 290 289 287 286 286 284 283 282 282
310 310 312 316 314 318 315 311 315 318 317 315 314 315 315 315 314 314 314 314 312 311 310 309 308 304 301 298 295 294 293 292 292 291 290 288 288 286 285 284 283 282 281 281
308 310 314 316 316 315 314 311 314 316 318 316 316 316 316 315 312 313 311 309 311 311 309 307 306 304 301 296 295 293 291 291 291 290 289 288 287 285 284 283 282 281 280 280
305 307 311 313 315 315 315 305 303 312 318 304 313 315 315 314 316 316 306 304 304 301 299 298 298 298 296 294 292 291 290 289 289 289 288 287 286 286 284 283 281 281 280 280
306 307 309 311 313 314 310 303 303 316 314 302 303 305 306 311 312 307 300 301 298 297 297 295 294 294 293 291 290 290 289 289 289 288 287 286 286 285 284 283 282 281 281 281
307 309 311 312 312 313 302 304 311 307 302 298 300 299 300 302 303 302 301 300 298 297 295 292 291 290 290 289 289 289 288 288 288 287 287 286 285 284 283 282 281 281 281 280
304 305 306 307 309 306 302 304 305 300 302 302 299 299 296 298 299 299 299 297 296 293 292 292 290 289 289 288 288 288 288 287 287 286 285 285 284 283 282 282 281 281 281 281
298 299 301 302 300 301 301 302 300 300 299 299 296 295 293 295 295 295 295 293 292 291 290 289 289 288 288 289 288 289 288 287 287 285 284 283 283 282 282 281 281 281 281 281
298 297 298 299 298 299 300 301 300 299 296 295 294 292 292 293 294 293 293 292 291 290 288 290 289 288 288 287 287 288 288 287 286 285 284 283 283 282 282 282 282 282 282 282
296 296 297 298 297 297 298 299 296 296 297 296 294 294 291 290 292 292 290 290 288 288 288 287 286 288 287 286 287 287 287 287 286 284 283 283 283 282 282 283 283 282 283 282

GFSCGP_925_thetae_102.txt.gz
Theta_e
314 312 313 312 312 312 312 314 313 314 314 315 314 313 313 312 312 311 311 311 311 312 313 317 316 316 320 327 329 333 331 329 330 329 327 326 326 328 329 329 328 328 327 327
315 314 313 313 314 315 314 314 313 312 313 315 314 314 313 313 313 312 313 312 312 312 313 314 316 315 317 325 329 331 330 328 328 325 323 322 323 324 327 327 325 325 326 326
313 315 313 312 314 315 314 314 313 312 314 314 314 313 314 314 314 313 313 313 313 312 313 315 312 314 316 322 327 328 328 327 325 324 321 322 322 322 321 321 321 322 321 320
314 314 313 313 314 314 314 313 312 313 314 313 314 314 314 313 314 315 314 313 313 313 313 312 312 313 314 315 319 326 326 326 324 320 321 320 321 318 320 322 320 320 319 319
314 313 313 314 314 313 314 314 314 315 314 315 315 314 313 312 312 312 312 313 315 315 313 313 311 313 313 313 314 318 322 323 322 320 318 317 317 318 319 319 317 316 316 316
314 313 314 314 313 313 314 315 316 316 315 315 313 312 312 312 314 314 313 317 313 311 309 308 310 311 312 312 313 315 318 319 318 317 315 313 312 313 313 313 314 313 312 314
315 314 313 313 313 313 315 315 316 320 317 316 313 313 313 318 316 317 317 315 313 311 309 307 307 308 310 311 312 313 314 314 315 313 313 310 310 312 311 310 310 310 309 309
314 315 314 312 314 314 314 314 316 317 321 317 315 317 317 318 318 318 316 313 312 310 310 308 307 308 309 310 311 311 311 312 312 311 310 309 309 310 310 307 307 308 310 312
313 313 314 313 313 314 315 316 315 317 311 317 317 316 316 317 317 316 316 314 312 311 309 307 307 309 309 309 309 309 309 310 311 309 307 307 307 307 306 306 305 306 306 307
316 317 315 313 313 313 314 315 317 318 320 318 314 315 316 318 316 314 315 314 312 311 307 306 305 308 308 308 308 308 308 309 309 308 307 307 306 306 306 305 304 303 305 305
314 317 316 314 314 315 315 315 317 317 318 318 316 315 317 318 316 317 316 316 312 309 307 306 305 307 307 307 306 306 307 307 308 306 306 306 305 304 302 305 305 303 303 301
316 319 317 316 314 314 314 315 317 319 319 317 318 318 315 314 313 312 312 311 309 309 307 305 305 306 306 306 306 306 306 306 306 306 305 304 302 301 300 301 302 301 300 299
316 315 322 320 318 315 316 316 316 317 317 317 319 319 312 311 311 311 310 309 308 308 306 305 304 304 305 306 306 306 306 305 305 305 304 303 301 299 298 298 298 298 298 297
313 310 316 324 319 318 318 318 318 318 321 319 320 320 317 317 316 313 313 311 308 306 305 304 303 303 304 305 305 306 305 305 304 303 303 302 300 298 298 297 297 296 296 295
311 315 313 314 311 311 313 313 314 316 318 321 320 320 318 316 315 315 312 312 308 307 306 305 304 303 304 304 304 304 304 304 303 302 302 300 299 297 296 295 295 294 293 292
312 314 313 313 313 312 314 313 313 315 315 317 319 318 315 315 314 313 314 314 309 308 307 305 304 304 305 306 305 304 304 303 303 302 300 299 297 296 294 293 293 292 290 289
310 312 313 316 313 314 313 313 314 314 315 315 318 316 315 314 315 315 314 313 314 313 311 309 306 305 306 306 306 304 305 303 302 301 299 298 296 295 293 292 291 290 289 288
308 310 309 312 309 311 309 311 313 314 314 313 313 305 305 305 307 311 307 307 309 309 309 307 305 305 306 306 306 305 303 302 301 300 298 297 295 294 292 291 289 288 288 287
308 307 308 308 306 306 306 308 312 314 310 305 306 305 304 303 306 311 301 302 303 303 302 301 300 300 299 299 301 302 301 300 299 298 296 296 295 293 291 289 288 287 286 284
305 304 304 305 306 307 307 305 306 309 311 301 304 305 304 302 304 306 300 300 300 301 300 299 298 297 297 297 297 297 297 297 296 296 295 295 293 292 291 290 288 286 285 285
305 306 308 307 303 304 303 304 305 308 307 303 302 302 300 301 302 302 299 298 299 299 299 298 297 295 294 293 293 294 294 294 295 294 294 293 292 291 291 289 287 286 284 283
305 306 307 307 307 305 302 304 308 303 303 302 301 301 302 300 300 299 297 297 296 296 297 297 295 295 294 292 291 292 292 292 292 292 292 291 290 289 288 287 285 284 283 282
297 303 303 304 303 301 300 298 300 302 300 300 302 300 300 299 299 298 297 296 294 294 294 294 293 292 293 292 290 290 291 291 290 290 290 289 288 287 287 285 284 283 282 281
297 300 298 298 300 302 298 298 299 299 299 300 299 298 297 297 296 295 295 293 292 294 294 293 292 291 291 291 290 289 289 289 289 289 288 287 286 285 285 285 284 283 282 282
296 298 295 296 297 296 295 296 297 298 298 297 295 294 294 293 293 292 292 292 292 292 293 293 291 290 290 291 289 288 288 288 287 287 287 286 285 285 285 284 284 284 284 283
294 295 296 295 295 294 294 294 294 294 294 293 293 294 293 292 292 291 290 291 292 291 291 290 289 288 289 289 288 287 287 287 286 286 285 285 284 284 284 283 283 283 283 283

GFSCGP_925_thetae_105.txt.gz
Theta_e
311 308 308 308 307 308 309 311 312 311 313 313 311 311 310 309 309 307 307 307 307 308 309 313 314 315 316 324 329 332 333 333 333 334 335 335 334 333 331 330 330 330 329 327
311 310 309 309 309 309 311 312 311 310 312 312 311 311 309 309 310 309 310 308 307 307 309 310 313 314 315 321 328 332 332 332 332 333 334 332 332 330 329 329 330 330 329 327
311 312 311 311 312 312 312 312 312 311 311 311 311 310 310 310 310 310 310 308 308 308 308 308 309 311 314 321 327 330 332 331 331 331 331 328 326 325 324 325 326 327 327 327
309 309 311 310 310 311 313 311 312 311 311 310 309 309 310 311 310 311 310 308 308 307 307 308 309 309 313 319 325 328 331 331 329 329 329 327 324 320 322 323 323 324 325 324
310 311 311 312 311 311 312 313 312 311 311 313 312 310 309 309 310 309 308 310 308 308 308 308 308 310 313 316 323 327 328 329 328 327 326 325 321 321 322 321 321 321 320 320
311 311 311 310 311 310 311 313 313 311 311 312 310 309 308 308 310 310 311 309 310 308 306 306 309 311 312 313 314 318 325 325 325 325 323 323 322 319 318 318 317 317 317 317
313 313 312 311 312 312 312 309 311 315 314 312 309 309 310 310 311 315 315 313 310 307 306 305 305 307 310 312 313 314 319 322 321 321 320 318 318 317 316 317 317 316 314 313
314 314 312 311 311 313 311 309 313 312 317 314 313 311 313 311 311 315 313 311 309 308 306 305 305 306 308 310 312 313 315 317 317 317 316 313 312 312 311 312 313 313 314 315
311 312 312 311 311 311 312 314 311 312 303 311 312 312 311 313 314 314 314 311 310 307 306 306 306 307 308 309 310 311 312 312 312 314 314 313 311 310 310 310 309 308 307 309
313 314 312 312 312 312 312 311 315 314 314 315 311 312 313 313 313 313 311 311 309 308 306 304 304 306 308 308 309 309 309 310 310 311 311 311 309 308 308 308 308 307 307 307
312 315 314 312 312 312 313 314 314 313 314 313 312 309 311 314 313 312 310 309 310 308 305 304 303 306 307 307 308 308 308 309 309 309 310 309 307 306 306 306 306 306 306 305
315 316 314 314 313 313 312 312 314 315 314 313 315 314 313 311 311 310 309 308 307 308 305 303 304 305 306 306 306 307 307 308 308 308 308 307 307 307 305 304 304 304 304 304
316 316 315 315 315 314 315 314 313 315 315 316 316 315 309 311 308 309 310 308 306 305 304 303 303 303 304 305 305 306 306 307 307 307 306 306 305 304 303 302 302 302 302 300
313 312 318 322 317 316 316 316 315 318 317 316 317 317 314 313 314 311 310 310 308 305 305 303 302 302 304 305 305 306 306 306 306 306 305 305 304 303 302 301 300 300 299 299
312 314 313 315 312 311 313 312 313 316 318 320 318 318 315 314 314 314 312 311 309 307 304 304 304 302 303 304 305 305 306 306 306 305 304 304 304 302 301 299 298 297 296 296
311 313 312 313 311 311 313 313 313 314 314 315 315 315 313 313 312 311 311 311 310 307 305 304 303 302 303 304 305 305 305 305 305 304 304 303 303 301 299 298 296 295 294 293
311 311 313 313 312 312 314 313 313 313 314 314 316 313 310 310 311 308 306 305 306 306 305 305 304 303 304 305 305 305 305 305 304 303 303 302 301 300 298 296 295 293 292 291
309 311 311 311 307 316 308 309 311 312 312 313 312 305 304 304 305 306 302 302 301 302 302 301 300 300 299 299 300 300 303 303 302 302 301 301 299 298 296 295 293 292 291 290
307 308 307 305 299 303 304 306 311 312 313 305 305 305 304 303 304 306 301 300 301 300 300 300 299 298 298 297 297 297 298 299 299 299 299 299 298 296 295 293 292 290 289 288
303 302 302 301 301 301 300 304 304 307 310 301 304 304 303 302 306 305 302 299 298 298 298 298 298 297 297 296 295 295 295 296 296 297 298 297 296 295 294 293 291 290 289 288
305 308 308 301 298 298 299 304 304 306 305 301 300 301 299 300 301 300 298 298 298 298 297 297 296 295 295 295 294 295 293 293 294 294 295 295 295 294 293 292 290 289 287 285
302 304 306 305 305 302 300 304 305 302 301 300 299 300 302 300 298 297 296 296 295 296 296 295 294 294 295 295 293 293 293 293 293 293 293 293 293 292 291 290 288 286 285 283
300 298 299 299 300 298 299 296 299 298 297 299 301 300 299 297 296 295 296 295 294 295 295 295 294 293 294 293 293 293 293 292 292 291 291 291 291 290 289 288 286 284 283 282
294 297 296 298 299 299 297 297 297 297 297 298 299 298 296 295 293 294 293 293 292 293 294 293 293 292 291 291 291 290 290 290 290 290 290 289 288 287 287 286 286 284 282 282
294 296 293 292 298 295 295 295 295 296 297 298 296 295 294 292 292 292 291 291 292 292 292 292 291 290 290 289 290 289 288 288 288 288 288 287 286 286 285 285 285 285 284 284
293 295 296 294 293 294 293 292 292 293 293 292 291 291 292 292 291 290 290 291 291 291 291 290 289 288 288 288 288 287 287 287 287 287 287 286 286 285 285 285 284 284 285 284

GFSCGP_925_thetae_108.txt.gz
Theta_e
310 308 309 308 306 305 307 310 310 310 312 312 310 310 309 308 307 307 305 305 305 306 309 311 313 312 315 321 325 328 332 335 335 335 334 334 333 333 333 332 332 330 328 326
309 308 307 307 307 308 308 309 309 309 311 312 310 309 308 308 308 308 309 307 306 305 305 308 311 312 311 313 319 326 330 333 335 334 333 331 333 333 333 333 332 331 330 328
308 309 308 309 309 310 309 308 309 310 309 308 310 308 307 307 307 307 307 308 308 305 303 304 307 310 311 311 317 324 329 331 333 333 333 332 331 330 330 330 331 331 331 329
309 309 310 309 310 309 310 309 310 311 309 309 307 307 308 309 308 307 306 306 306 305 304 304 306 308 310 312 315 324 328 330 331 331 332 332 331 328 329 329 329 329 329 328
308 309 310 310 309 309 310 310 309 310 309 311 310 309 307 306 309 308 307 305 304 304 305 305 304 308 310 311 316 324 328 329 330 330 330 331 330 329 328 326 325 325 325 323
308 310 308 309 310 309 309 311 309 308 308 310 308 307 306 306 308 308 308 307 306 309 307 306 307 308 310 313 321 325 327 328 328 328 328 328 329 328 325 323 322 323 321 320
313 312 311 310 311 311 309 308 310 310 311 310 307 308 307 307 308 307 311 312 310 307 306 306 306 307 310 311 316 323 326 327 326 326 326 327 326 326 324 322 320 320 318 316
313 315 311 310 311 312 308 308 310 309 313 310 308 309 309 307 307 306 310 310 309 307 305 305 305 307 309 310 311 313 318 322 323 324 324 324 324 322 321 320 319 318 318 319
312 310 310 310 309 311 312 311 308 309 300 310 312 310 308 310 311 310 310 310 310 308 306 306 305 306 307 309 311 312 314 316 318 320 320 319 318 317 316 315 314 313 314 315
309 312 311 311 311 311 310 310 313 311 310 311 308 309 310 312 311 311 310 308 309 307 307 305 304 306 306 308 309 310 311 312 313 315 315 315 314 312 311 311 310 310 310 309
310 312 313 311 311 311 313 312 312 312 311 312 310 308 306 311 313 313 310 308 307 308 305 304 303 305 306 307 308 308 309 309 309 310 311 312 311 310 309 308 308 308 308 307
313 312 311 312 311 312 312 311 312 312 311 311 311 311 312 311 310 308 308 307 307 307 304 302 303 304 305 306 307 307 307 308 308 309 309 309 309 308 307 306 306 305 306 305
315 315 313 313 312 313 314 312 311 313 312 311 312 311 309 308 308 308 309 308 305 306 305 302 302 303 304 305 305 306 306 307 307 307 307 307 307 307 306 306 305 304 304 303
315 314 317 319 314 314 314 315 315 313 314 314 314 312 311 310 313 312 311 309 308 305 304 303 302 302 304 305 306 307 307 307 307 306 306 306 306 305 305 305 304 303 302 302
313 316 315 315 313 314 314 314 314 316 315 314 316 316 314 312 311 311 311 310 309 306 304 303 303 302 303 303 304 305 305 305 306 306 306 306 305 305 304 304 302 301 299 299
311 314 313 315 313 312 311 313 314 315 315 315 314 314 310 310 311 308 308 308 307 305 305 304 303 302 303 303 303 304 304 304 304 304 305 305 305 304 304 303 301 300 298 296
309 311 313 313 312 312 313 313 314 314 313 315 316 314 312 311 310 306 302 302 303 303 303 302 301 301 301 301 301 301 302 303 304 303 303 303 303 302 302 302 300 298 296 295
309 311 311 312 313 314 307 308 311 314 313 312 307 306 308 307 305 302 301 300 300 301 301 300 299 299 299 298 298 298 299 299 300 300 300 300 300 300 300 300 298 296 295 294
309 308 310 311 300 303 305 304 309 311 312 310 308 304 304 303 303 304 300 300 300 300 299 298 298 298 297 297 296 295 296 297 298 299 299 299 299 298 298 297 296 295 293 292
305 302 302 299 303 304 300 300 306 307 311 301 304 303 302 302 308 307 301 299 298 297 297 297 297 296 296 296 295 295 296 296 296 296 297 297 297 297 297 297 296 294 292 291
307 308 308 301 296 296 299 302 304 310 306 300 300 300 299 299 301 299 297 297 297 297 297 297 295 295 296 295 295 294 294 295 296 296 295 295 295 295 295 294 293 292 290 288
306 308 308 303 304 304 297 303 304 301 299 298 298 299 299 299 297 295 293 294 294 294 295 295 295 295 295 294 293 293 293 294 294 294 293 293 293 293 293 292 291 289 287 285
299 298 299 302 302 297 297 297 298 295 297 297 298 298 297 296 295 293 293 293 292 293 294 294 294 293 294 293 292 292 293 292 291 291 291 291 291 291 290 289 288 286 285 283
294 295 296 297 299 297 296 295 296 296 295 297 296 295 295 295 293 292 292 292 291 293 293 293 292 291 291 291 291 291 291 290 289 289 290 290 290 290 289 288 286 285 284 283
294 296 293 292 297 295 294 294 294 294 294 296 296 295 293 292 289 291 290 290 291 291 290 290 289 289 289 289 289 289 290 289 288 288 288 288 288 288 287 287 287 285 286 285
293 295 297 295 297 295 293 292 292 292 293 292 292 291 291 291 290 288 288 289 288 287 286 286 286 286 287 287 287 287 287 287 287 286 287 287 287 286 286 285 285 285 285 285

GFSCGP_925_thetae_114.txt.gz
Theta_e
307 309 309 308 307 306 307 307 308 307 308 310 308 307 308 306 306 305 305 304 304 303 306 307 308 309 311 320 324 326 329 333 334 333 332 330 330 329 329 329 329 329 326 322
308 308 307 306 305 306 306 308 308 307 309 310 308 308 307 306 306 306 306 305 304 304 302 303 307 308 308 309 316 323 326 329 332 333 332 332 330 330 331 330 330 329 327 325
307 308 305 307 306 307 306 305 306 307 307 306 305 305 306 305 305 304 304 303 303 303 303 301 303 306 307 307 308 314 322 326 329 332 332 332 331 330 329 330 329 329 329 329
306 306 306 307 306 305 306 304 306 308 308 308 305 305 304 304 304 304 303 303 301 300 300 300 302 304 305 306 307 308 313 322 327 330 332 331 331 329 328 330 330 329 330 328
306 307 307 307 307 305 306 305 307 308 307 308 307 307 304 305 307 306 305 302 302 303 301 298 300 303 305 305 306 307 309 316 323 328 331 330 329 330 329 329 329 329 327 327
305 306 306 306 306 306 306 306 305 305 305 308 306 305 304 304 305 306 306 305 303 304 303 302 305 307 308 311 309 308 309 314 321 326 329 328 328 328 328 328 328 327 327 325
310 311 309 307 308 308 306 307 308 308 309 309 304 305 306 305 303 303 303 302 302 304 303 303 302 304 308 314 316 316 318 319 322 325 326 325 325 325 326 326 327 326 325 324
309 311 310 308 307 308 306 306 309 308 309 307 305 307 307 304 305 305 308 306 305 305 303 303 302 304 307 309 316 319 320 320 321 323 324 325 326 324 325 326 325 324 324 325
309 308 309 308 307 308 309 309 306 306 295 307 307 306 305 307 307 310 308 307 305 305 304 304 303 303 305 308 309 313 319 320 319 319 320 321 322 322 324 323 322 321 319 319
308 309 310 309 309 309 308 307 309 307 306 308 306 306 307 309 308 311 309 307 305 305 304 303 302 304 305 306 308 310 312 315 317 319 319 320 320 321 321 321 320 318 317 315
307 308 311 309 309 309 309 309 308 308 308 311 308 306 302 304 309 309 309 308 307 305 303 302 301 303 304 306 307 307 308 310 311 313 314 315 316 316 316 315 313 312 311 310
309 310 312 311 309 309 310 308 309 309 308 307 307 309 308 307 307 307 309 308 306 305 303 301 301 302 303 304 306 306 307 307 308 308 309 310 311 311 311 310 310 309 308 307
311 312 312 313 309 310 311 309 308 308 308 308 308 310 307 307 308 309 311 308 305 305 304 301 301 301 302 303 304 305 306 306 307 307 307 307 308 308 308 308 308 307 306 306
311 309 313 315 311 312 314 311 309 311 312 311 309 311 310 308 309 310 309 307 306 303 302 301 300 300 301 302 303 303 304 305 305 306 306 306 306 306 306 306 306 305 305 305
314 312 311 312 311 311 310 309 311 312 311 311 311 308 309 308 310 307 307 308 304 304 303 302 301 299 300 301 301 302 303 303 303 304 304 304 304 304 305 305 305 304 303 303
314 315 315 316 314 314 316 314 311 310 310 310 310 310 307 308 307 307 308 306 305 304 302 301 300 299 299 299 299 300 300 301 302 302 302 301 302 302 303 303 302 302 302 302
313 311 314 319 314 314 315 316 315 312 311 311 312 311 310 310 309 307 305 304 303 301 300 299 297 297 297 297 297 297 298 298 300 300 300 300 300 301 300 300 300 300 300 300
311 313 313 313 314 319 312 306 313 313 313 310 310 309 308 308 304 300 299 299 299 298 298 297 297 297 297 297 297 297 298 299 299 299 298 298 298 298 298 299 299 298 298 298
310 312 313 315 315 308 309 305 309 312 314 312 311 307 304 300 300 300 298 298 297 297 297 297 297 296 296 296 296 296 296 296 296 296 296 296 296 296 297 297 297 297 297 297
308 310 315 306 311 309 303 300 304 306 312 303 309 306 302 301 306 300 297 296 295 296 296 296 296 296 296 295 295 295 295 295 295 294 294 294 295 294 295 295 295 295 295 295
311 311 314 309 307 300 299 302 303 305 306 300 305 305 301 300 301 297 294 294 295 295 295 295 295 294 294 294 294 293 292 292 292 292 292 293 293 293 293 293 293 293 293 293
309 311 311 304 307 311 297 303 307 302 298 299 298 298 297 294 291 291 291 291 292 293 293 293 292 291 291 291 291 290 290 290 290 291 291 292 292 291 291 291 292 292 291 291
306 305 306 305 307 297 294 298 299 296 297 297 295 293 292 291 291 290 290 290 290 290 290 289 289 289 288 288 288 287 287 288 289 289 290 290 290 290 290 290 290 290 289 289
294 294 299 301 299 298 298 296 295 295 297 293 291 290 290 290 290 290 290 290 289 288 286 286 287 286 285 285 285 285 286 287 287 288 288 288 288 288 288 288 288 288 288 288
295 295 293 294 297 295 295 293 294 294 291 290 290 290 290 289 288 289 288 287 285 284 282 282 282 282 282 283 283 283 284 284 285 285 286 286 286 287 287 287 287 286 287 286
293 295 299 299 296 298 297 292 292 292 291 290 289 289 288 289 289 286 285 284 281 280 279 279 279 279 279 280 280 280 280 281 281 282 283 282 283 285 285 285 286 285 285 284

GFSCGP_925_thetae_117.txt.gz
Theta_e
306 308 308 308 306 306 306 306 306 306 307 309 308 307 308 306 306 306 305 305 305 304 306 307 308 308 310 320 324 328 331 333 333 332 330 330 329 328 329 328 328 327 325 324
307 307 306 306 304 305 306 307 307 307 308 309 308 308 307 306 306 306 307 306 305 305 304 304 305 307 307 308 314 322 326 329 332 333 332 331 330 329 330 329 328 327 326 325
306 307 305 306 305 306 305 305 306 307 306 305 304 305 305 305 304 304 303 304 304 304 304 303 303 304 305 305 307 312 320 325 328 331 331 332 331 330 329 329 328 329 328 328
306 304 304 305 306 305 307 304 305 307 307 306 304 306 305 304 303 303 304 303 302 300 300 300 300 301 303 305 305 306 311 321 326 329 331 329 330 329 329 329 329 329 329 329
305 305 305 306 306 305 306 303 305 307 306 307 307 308 305 303 306 306 305 303 304 303 304 303 303 305 305 305 305 305 305 314 323 328 330 329 329 329 329 329 329 328 328 329
304 304 305 305 304 305 304 305 304 304 305 308 305 305 304 304 305 305 305 303 301 303 304 303 304 306 309 312 309 306 304 308 316 324 328 329 328 328 329 328 328 328 328 328
309 309 306 306 306 306 305 305 308 309 309 308 304 305 305 304 302 303 304 302 304 304 304 303 303 305 308 314 315 313 310 310 315 321 325 326 326 326 326 327 327 327 327 326
306 308 308 307 306 308 305 305 308 308 310 307 305 307 307 304 303 304 306 307 306 305 303 303 302 304 306 309 316 316 315 314 317 319 321 323 324 325 325 325 325 326 325 325
307 306 308 307 306 307 308 308 305 305 295 307 305 304 304 305 304 308 308 308 306 305 304 303 302 303 305 307 309 316 316 316 315 316 318 320 321 322 323 323 323 322 321 321
307 308 309 309 308 309 306 305 308 306 305 306 305 305 307 307 308 309 309 309 306 305 304 302 302 303 304 306 307 310 314 315 315 316 317 318 320 321 321 321 321 320 319 318
305 308 311 308 309 308 307 307 307 306 307 308 305 305 301 305 304 307 308 307 306 304 303 302 301 303 304 305 306 307 309 312 314 315 316 317 317 318 319 318 316 314 312 311
307 308 311 310 308 309 309 307 307 309 307 306 307 308 307 303 305 307 307 306 305 303 301 300 301 302 303 304 305 306 306 307 308 309 311 312 312 312 311 311 310 309 309 308
309 309 305 308 308 309 310 308 307 306 307 309 309 309 305 305 306 307 307 306 305 304 301 300 300 300 301 302 303 304 305 305 306 306 307 307 307 308 308 308 308 307 307 306
310 310 310 310 309 310 313 309 307 309 311 310 308 309 310 308 308 307 308 306 307 302 301 300 299 299 300 301 302 303 303 304 304 305 305 305 305 305 305 305 305 305 305 305
311 311 310 309 309 310 309 311 310 311 311 311 310 308 306 308 308 308 306 306 303 303 302 300 300 298 299 299 300 301 300 301 301 303 304 304 303 303 303 303 303 303 303 302
313 314 311 310 311 313 314 310 310 310 310 310 309 308 304 307 305 306 307 306 305 303 301 299 298 298 297 297 298 298 298 298 299 299 299 300 301 301 301 301 301 301 301 300
313 312 316 318 311 313 316 314 311 311 309 309 311 310 307 308 307 307 306 305 304 302 299 298 297 297 296 296 296 297 297 298 299 298 298 299 299 299 300 300 300 300 300 300
309 311 313 315 316 319 313 305 311 312 311 310 310 308 307 307 306 305 303 302 300 298 297 296 296 296 296 296 296 296 296 296 296 296 297 297 298 298 298 298 299 299 299 299
310 311 314 315 316 308 310 305 309 312 313 311 310 307 306 301 300 300 298 298 297 296 296 296 296 296 295 295 295 295 296 296 296 296 295 295 295 295 295 296 296 296 297 297
307 309 313 308 314 311 303 300 305 307 314 303 309 309 303 301 309 304 296 295 294 295 296 295 295 294 294 293 294 295 294 294 293 293 293 293 293 293 293 293 293 293 293 294
312 312 315 311 306 303 301 301 303 309 308 302 305 306 301 305 304 298 294 293 294 294 294 294 294 293 292 292 293 292 291 290 290 290 291 292 292 292 293 292 292 292 292 292
311 313 313 310 311 313 297 303 308 304 298 300 300 300 299 294 294 293 292 291 291 292 292 292 291 289 289 289 290 289 288 288 289 289 290 290 290 291 291 291 291 291 290 290
307 306 307 308 309 299 296 300 298 297 299 298 298 296 294 292 291 290 290 290 290 290 289 289 289 287 285 286 286 287 285 286 287 288 288 289 289 289 289 289 289 289 289 288
293 294 299 301 301 298 298 296 296 295 297 295 293 292 291 291 289 289 289 290 288 287 285 285 285 284 282 283 284 284 284 285 286 287 287 287 287 287 287 287 287 287 288 287
296 295 293 295 297 296 296 295 296 295 293 290 289 289 289 290 289 289 289 288 286 283 282 283 282 280 279 280 281 281 282 282 283 284 284 284 284 284 285 285 285 286 287 286
293 295 299 300 298 300 300 296 293 293 291 289 289 289 289 289 289 286 286 284 282 280 279 280 279 280 279 279 279 279 280 280 281 282 281 281 281 281 281 282 284 285 284 283

GFSCGP_925_thetae_123.txt.gz
Theta_e
313 312 313 313 313 313 314 314 313 313 311 313 313 314 314 314 314 314 314 315 315 315 315 313 312 317 325 329 331 333 334 335 335 333 332 331 331 330 330 330 329 327 325 323
312 312 312 313 313 312 312 313 312 311 312 313 313 314 313 313 314 314 314 314 315 315 316 315 314 312 316 324 327 330 332 334 335 333 331 332 332 330 330 329 329 329 327 325
312 311 312 313 312 312 312 312 312 311 312 311 311 312 313 313 312 313 313 314 314 315 315 316 314 313 312 312 316 324 327 331 334 334 332 331 332 330 330 330 330 329 328 326
312 311 312 312 311 311 311 311 311 311 311 311 312 311 314 313 312 311 311 312 313 313 313 313 312 311 311 311 311 311 317 324 329 334 332 332 330 329 330 329 329 329 329 328
311 311 311 312 312 311 311 312 311 312 313 313 312 312 311 312 312 312 313 313 313 312 312 313 313 311 311 309 308 308 309 314 322 328 333 330 331 330 329 328 329 328 328 328
311 308 311 312 310 311 310 312 312 312 311 312 311 312 312 313 312 312 312 311 311 311 312 311 311 311 313 315 315 310 307 308 315 322 329 330 329 328 329 329 329 328 328 327
310 309 309 309 311 311 311 312 312 312 312 311 311 312 312 313 312 311 311 311 311 313 313 312 312 313 314 318 317 316 309 307 311 317 324 328 327 327 327 328 328 328 327 326
310 310 310 309 311 311 312 311 314 318 314 312 309 311 311 313 312 309 309 309 312 313 312 312 311 311 312 315 316 318 317 312 312 317 321 324 325 326 326 327 327 327 327 327
310 310 310 310 310 311 311 312 312 312 310 314 313 312 312 313 311 310 310 310 313 313 312 312 311 310 311 312 315 316 317 317 318 318 320 323 323 324 325 326 326 326 326 326
310 311 310 309 310 311 311 311 310 312 324 315 310 312 312 313 311 312 311 311 312 312 311 311 310 309 309 310 312 315 315 316 315 316 317 319 319 320 322 324 324 324 324 323
310 310 313 310 310 310 310 311 310 310 311 314 312 310 311 312 313 312 312 314 314 312 312 310 309 308 308 308 310 312 314 314 315 316 316 317 318 319 321 322 321 321 320 319
310 312 315 311 310 311 311 310 311 312 312 311 313 314 310 311 311 312 314 314 313 312 311 309 308 308 308 308 308 309 310 312 312 314 315 316 317 317 317 317 317 317 316 314
311 320 321 316 311 311 312 311 311 312 314 319 315 312 312 311 310 312 313 313 311 310 309 308 307 308 308 307 307 307 307 307 308 310 311 312 313 313 312 312 311 310 308 308
311 318 314 314 313 312 313 311 311 311 316 314 314 312 312 313 312 312 313 312 311 309 309 309 308 307 307 306 306 306 305 306 306 306 307 306 306 306 306 306 306 306 305 305
311 315 313 313 315 317 314 313 313 312 312 313 312 312 312 312 313 313 313 313 312 310 308 309 308 307 305 304 304 303 303 303 303 304 303 302 303 303 303 303 303 303 303 303
312 317 313 314 313 314 316 314 313 312 311 311 311 311 312 312 312 312 313 314 314 311 309 308 307 306 305 304 303 301 301 301 301 301 300 300 300 301 301 301 301 301 301 301
314 314 317 315 314 316 315 313 314 313 311 311 311 312 312 312 312 312 314 314 314 312 310 308 306 304 303 302 301 301 299 299 299 298 297 298 298 299 299 299 300 300 300 300
311 314 318 320 316 318 314 312 311 313 313 312 311 312 313 313 312 312 312 314 313 312 310 307 305 303 301 299 298 297 297 297 296 295 295 295 295 296 296 296 297 297 297 296
314 314 318 318 320 318 316 310 313 313 313 312 312 312 312 312 309 311 309 311 313 311 307 305 303 300 297 296 295 295 295 294 293 293 293 293 293 293 293 293 293 293 293 293
312 313 316 317 321 321 318 312 312 313 317 315 314 313 313 311 313 313 308 305 308 306 304 301 298 296 295 294 294 294 293 292 291 290 290 291 291 292 292 292 292 292 292 292
314 313 316 319 321 321 311 307 312 317 320 308 311 313 313 312 312 307 304 303 302 300 298 296 295 295 293 293 293 292 290 289 289 289 289 290 290 290 290 290 291 291 291 291
314 315 316 317 319 319 305 309 316 312 304 305 306 309 311 309 304 302 301 300 298 297 296 294 292 290 290 291 292 289 288 287 288 288 288 288 288 289 289 290 290 290 290 290
316 315 317 316 318 306 307 309 306 304 306 304 306 305 306 302 302 301 299 298 297 296 292 290 288 286 287 288 289 287 284 285 286 287 287 288 288 288 289 289 289 288 288 288
306 302 311 313 308 305 305 302 302 301 302 301 301 303 303 303 300 298 297 295 293 291 290 287 286 284 283 284 286 285 285 285 286 287 287 287 287 287 287 287 287 286 286 286
305 304 307 308 301 301 302 302 303 300 298 297 296 297 299 299 296 295 294 292 291 288 287 286 285 283 281 282 283 283 284 285 284 284 284 284 284 284 284 284 284 285 284 284
298 304 308 311 306 306 305 302 301 301 299 298 297 294 293 296 295 294 292 290 287 285 285 285 284 283 281 281 280 281 281 282 283 283 282 282 282 282 282 282 283 283 283 283